Location: Vassar Physics Lab
(41.6843°N, 73.8954°W)
Time: 23:05:07
(UTC-05:00)

CZ-4B DEB - Visible Passes

Search period start: 04 March 2015 00:00
Search period end: 14 March 2015 01:00
Orbit: 843 x 863 km, 98.9° (Epoch: 04 March)

Date Brightness Start Highest point End Pass type
(mag) Time Alt. Az. Time Alt. Az. Time Alt. Az.
04 Mar 6.9 02:10:38 10° NE 02:11:46 13° ENE 02:11:46 13° ENE visible
04 Mar 4.7 03:49:36 10° N 03:53:49 51° N 03:53:49 51° N visible
04 Mar 6.1 05:33:54 10° NW 05:35:01 10° WNW 05:35:49 10° WNW visible
05 Mar 7.1 02:00:30 10° ENE 02:00:40 10° ENE 02:00:40 10° ENE visible
05 Mar 4.7 03:38:28 10° NNE 03:42:43 54° N 03:42:43 54° N visible
05 Mar 5.9 05:21:28 10° NNW 05:24:04 13° WNW 05:24:47 13° WNW visible
06 Mar 4.8 03:27:22 10° NNE 03:31:38 53° NNE 03:31:38 53° NNE visible
06 Mar 5.7 05:09:42 10° NNW 05:13:06 16° WNW 05:13:42 16° WNW visible
07 Mar 5.0 03:16:18 10° NNE 03:20:32 48° NE 03:20:32 48° NE visible
07 Mar 5.5 04:58:09 10° NNW 05:02:07 20° WNW 05:02:36 20° WNW visible
08 Mar 5.3 04:05:17 10° NNE 04:09:26 42° ENE 04:09:26 42° ENE visible
08 Mar 5.3 05:46:42 10° NNW 05:51:07 24° WNW 05:51:30 24° WNW visible
09 Mar 5.6 03:54:19 10° NNE 03:58:19 35° ENE 03:58:19 35° ENE visible
09 Mar 5.0 05:35:20 10° N 05:40:06 29° WNW 05:40:24 29° WNW visible
10 Mar 5.9 03:43:25 10° NE 03:47:13 29° ENE 03:47:13 29° ENE visible
10 Mar 4.8 05:24:01 10° N 05:29:04 36° WNW 05:29:17 36° WNW visible
11 Mar 6.2 03:32:35 10° NE 03:36:07 24° ENE 03:36:07 24° ENE visible
11 Mar 4.5 05:12:44 10° N 05:18:00 44° WNW 05:18:11 44° WNW visible
12 Mar 6.4 03:21:52 10° NE 03:25:01 19° E 03:25:01 19° E visible
12 Mar 4.2 05:01:31 10° N 05:06:56 55° WNW 05:07:05 55° WNW visible
13 Mar 6.7 03:11:20 10° NE 03:13:55 15° E 03:13:55 15° E visible
13 Mar 4.1 04:50:20 10° N 04:55:51 69° WNW 04:55:58 69° W visible
13 Mar 6.1 06:34:51 10° NW 06:35:42 10° WNW 06:36:13 10° WNW visible
